Orlando, FL

4:04 AM EDT on September 27, 2016 (GMT -0400)
Executive

Weather History for KORL - July, 2013

Change the Weather History Date:

Monday, July 1, 2013

  Actual Average Record
Temperature  
Mean Temperature 78 °F -  
Max Temperature 84 °F 88 °F 99 °F (1998)
Min Temperature 73 °F 71 °F 71 °F (1996)
Cooling Degree Days 14    
Growing Degree Days 28 (Base 50)    
Moisture  
Dew Point 72 °F    
Average Humidity 88    
Maximum Humidity 94    
Minimum Humidity 67    
Precipitation  
Precipitation 0.54 in - - ()
Sea Level Pressure  
Sea Level Pressure 29.96 in    
Wind  
Wind Speed 11 mph (SSW)    
Max Wind Speed 25 mph    
Max Gust Speed 32 mph    
Visibility 9 miles    
Events Fog , Rain , Thunderstorm    
Averages and records for this station are not official NWS values.
T = Trace of Precipitation, MM = Missing Value Source: NWS Daily Summary

Daily Weather History Graph

Daily Weather History Graph

Search for Another Location

Airport or City:

Trip Planner

Search our weather history database for the weather conditions in past years. The results will help you decide how hot, cold, wet, or windy it might be!

Date:

Astronomy

Jul. 01, 2013 Rise Set
Actual Time 6:31 AM EDT 8:27 PM EDT
Civil Twilight 6:04 AM EDT 8:53 PM EDT
Nautical Twilight 5:32 AM EDT 9:26 PM EDT
Astronomical Twilight 4:57 AM EDT 10:00 PM EDT
Moon 1:42 AM EDT (7/1) 2:56 PM EDT (7/1)
Length of Visible Light 14h 49m
Length of Day
13h 55m
Waning Crescent, 35% of the Moon is Illuminated
Jul 1
Waning Crescent
Jul 8
New
Jul 15
First Quarter
Jul 22
Full
Jul 29
Last Quarter

Hourly Weather History & Observations

Time (EDT) Temp. Heat Index Dew Point Humidity Pressure Visibility Wind Dir Wind Speed Gust Speed Precip Events Conditions
12:53 AM 73.9 °F - 72.0 °F 93% 29.93 in 10.0 mi South 8.1 mph - N/A   Clear
1:53 AM 73.9 °F - 71.1 °F 91% 29.91 in 10.0 mi SSE 12.7 mph - N/A   Mostly Cloudy
2:53 AM 73.9 °F - 71.1 °F 91% 29.92 in 10.0 mi South 9.2 mph - N/A   Partly Cloudy
3:53 AM 73.9 °F - 72.0 °F 93% 29.90 in 10.0 mi South 12.7 mph - N/A   Clear
4:45 AM 75.2 °F - 71.6 °F 89% 29.89 in 10.0 mi South 9.2 mph - N/A   Partly Cloudy
4:53 AM 75.0 °F - 73.0 °F 94% 29.90 in 10.0 mi South 9.2 mph - N/A   Partly Cloudy
5:14 AM 75.2 °F - 73.4 °F 94% 29.89 in 10.0 mi South 10.4 mph - N/A   Mostly Cloudy
5:53 AM 75.0 °F - 73.0 °F 94% 29.90 in 10.0 mi South 10.4 mph - N/A   Overcast
6:23 AM 75.2 °F - 73.4 °F 94% 29.90 in 10.0 mi South 9.2 mph - N/A   Scattered Clouds
6:53 AM 75.0 °F - 73.0 °F 94% 29.94 in 10.0 mi South 11.5 mph - N/A   Partly Cloudy
7:33 AM 75.2 °F - 71.6 °F 89% 29.94 in 10.0 mi South 13.8 mph - N/A   Mostly Cloudy
7:42 AM 75.2 °F - 71.6 °F 89% 29.94 in 10.0 mi South 12.7 mph - N/A   Scattered Clouds
7:50 AM 75.2 °F - 73.4 °F 94% 29.95 in 10.0 mi South 12.7 mph - N/A   Mostly Cloudy
7:53 AM 75.9 °F - 73.0 °F 91% 29.96 in 10.0 mi South 10.4 mph - N/A   Mostly Cloudy
8:23 AM 75.2 °F - 73.4 °F 94% 29.95 in 10.0 mi South 11.5 mph 19.6 mph N/A   Mostly Cloudy
8:35 AM 75.2 °F - 73.4 °F 94% 29.94 in 10.0 mi South 11.5 mph - N/A   Mostly Cloudy
8:53 AM 77.0 °F - 73.0 °F 88% 29.95 in 10.0 mi SSW 11.5 mph - N/A   Mostly Cloudy
9:01 AM 77.0 °F - 73.4 °F 89% 29.94 in 10.0 mi SSW 12.7 mph - N/A   Scattered Clouds
9:13 AM 77.0 °F - 73.4 °F 89% 29.94 in 10.0 mi SSW 13.8 mph 23.0 mph N/A   Mostly Cloudy
9:21 AM 77.0 °F - 71.6 °F 83% 29.94 in 10.0 mi SSW 17.3 mph 25.3 mph N/A   Scattered Clouds
9:53 AM 77.0 °F - 70.0 °F 79% 29.96 in 10.0 mi SSW 15.0 mph 26.5 mph N/A   Clear
10:53 AM 80.1 °F 82.9 °F 69.1 °F 69% 29.97 in 10.0 mi South 13.8 mph - N/A   Clear
11:53 AM 81.0 °F 84.1 °F 69.1 °F 67% 29.99 in 10.0 mi SSW 17.3 mph 23.0 mph N/A   Scattered Clouds
12:53 PM 82.0 °F 86.3 °F 71.1 °F 69% 29.99 in 10.0 mi SSW 13.8 mph - N/A   Clear
1:53 PM 84.0 °F 90.2 °F 73.0 °F 69% 29.96 in 10.0 mi SSW 11.5 mph - N/A   Scattered Clouds
2:53 PM 79.0 °F - 69.1 °F 72% 29.96 in 10.0 mi WSW 16.1 mph 28.8 mph N/A   Mostly Cloudy
3:00 PM 78.8 °F - 69.8 °F 74% 29.96 in 10.0 mi WSW 15.0 mph - N/A   Scattered Clouds
3:14 PM 77.0 °F - 71.6 °F 83% 29.99 in 2.5 mi SSW 25.3 mph 32.2 mph 0.08 in Thunderstorm Unknown
3:16 PM 75.2 °F - 71.6 °F 89% 29.99 in 0.8 mi SSW 24.2 mph 32.2 mph 0.23 in Rain , Thunderstorm Light Thunderstorms and Rain
3:23 PM 73.4 °F - 71.6 °F 94% 29.97 in 0.5 mi SW 10.4 mph 32.2 mph 0.36 in Fog , Rain , Thunderstorm Heavy Thunderstorms and Rain
3:27 PM 73.4 °F - 71.6 °F 94% 29.97 in 1.2 mi SW 11.5 mph - 0.37 in Rain , Thunderstorm Light Thunderstorms and Rain
3:30 PM 73.4 °F - 71.6 °F 94% 29.97 in 3.0 mi SW 9.2 mph - 0.37 in Rain , Thunderstorm Light Thunderstorms and Rain
3:46 PM 75.2 °F - 71.6 °F 89% 29.99 in 10.0 mi SSW 8.1 mph 17.3 mph 0.37 in   Mostly Cloudy
3:53 PM 75.9 °F - 71.1 °F 85% 30.00 in 10.0 mi SSW 21.9 mph 31.1 mph 0.37 in   Mostly Cloudy
4:53 PM 73.9 °F - 72.0 °F 93% 29.99 in 6.0 mi SW 8.1 mph - 0.10 in Rain Rain
5:53 PM 75.9 °F - 73.0 °F 91% 29.98 in 10.0 mi SW 10.4 mph - 0.01 in   Clear
6:44 PM 75.2 °F - 73.4 °F 94% 30.01 in 10.0 mi South 12.7 mph - N/A   Mostly Cloudy
6:53 PM 75.9 °F - 73.9 °F 94% 30.01 in 2.5 mi SSW 6.9 mph - 0.03 in Rain Heavy Rain
7:02 PM 75.2 °F - 73.4 °F 94% 30.01 in 4.0 mi South 10.4 mph - 0.02 in Rain Rain
7:53 PM 75.0 °F - 73.0 °F 94% 30.02 in 10.0 mi South 6.9 mph - 0.02 in Rain Light Rain
8:53 PM 75.0 °F - 73.0 °F 94% 30.02 in 10.0 mi South 6.9 mph - 0.01 in   Clear
9:53 PM 73.9 °F - 72.0 °F 93% 30.04 in 10.0 mi South 5.8 mph - N/A   Clear
10:53 PM 75.0 °F - 73.0 °F 94% 30.06 in 10.0 mi South 4.6 mph - N/A   Mostly Cloudy
11:53 PM 75.0 °F - 73.0 °F 94% 30.06 in 10.0 mi ESE 4.6 mph - 0.00 in Rain Light Rain